GFSGBSN_700_spd_159.txt.gz
Wind_Speed
40 39 39 38 38 37 37 37 37 36 36 35 36 35 35 34 33 32 33 32 29 29 29 29 28 27 24 24 23 22 23 21 19 16 16 17 17 16 17 15 15 17 19 18 16 18 19
40 41 41 40 40 39 37 37 37 39 37 35 36 36 35 34 33 34 34 33 31 31 32 31 31 29 29 29 24 22 20 20 18 16 15 16 17 16 16 16 17 18 18 19 21 18 19
42 43 43 43 41 41 40 39 39 38 38 37 36 35 35 34 33 33 33 33 31 31 34 34 30 32 29 26 23 20 22 23 22 21 17 17 17 16 17 16 18 19 20 20 20 18 19
45 42 41 40 38 38 38 38 37 38 39 38 36 36 36 36 35 33 33 33 33 31 31 33 32 31 30 24 23 23 24 24 22 22 21 21 20 19 17 19 19 17 18 20 18 18 22
42 43 43 42 40 40 41 41 42 40 39 39 37 36 37 37 36 35 34 33 33 31 33 32 32 32 29 26 19 18 20 18 19 23 25 21 17 18 18 19 16 18 18 17 16 12 15
43 42 40 39 41 41 39 36 37 36 37 36 35 36 35 36 36 36 35 34 35 33 34 33 34 32 26 26 25 23 18 20 16 14 20 19 16 17 17 15 14 17 17 16 18 16 19
42 44 44 44 43 43 43 42 42 40 37 36 35 36 35 34 34 33 33 31 33 34 35 32 31 32 24 25 24 25 18 15 12 17 19 19 18 22 13 10 13 17 18 20 21 16 19
40 40 40 40 40 40 39 39 39 39 36 34 32 33 32 30 29 29 27 27 27 30 35 31 31 34 31 31 32 24 23 21 22 19 18 21 24 17 15 16 17 19 18 21 21 21 23
37 36 36 36 37 37 37 37 36 35 33 32 32 30 29 28 27 25 24 24 23 25 31 38 33 37 32 35 37 32 33 30 28 29 27 28 21 11 12 16 12 16 21 23 21 20 22
36 37 36 35 35 35 36 35 35 34 32 30 29 28 27 26 26 23 21 20 18 20 20 31 27 26 24 28 35 30 33 38 39 37 32 28 28 28 28 30 24 26 22 19 19 17 9
40 41 40 40 37 35 35 35 34 33 32 30 28 27 26 26 25 22 19 15 13 13 4 11 9 12 10 10 14 12 15 32 43 42 28 27 19 13 17 18 18 25 21 22 18 18 21
39 40 40 40 40 40 37 36 34 35 34 32 30 28 27 27 25 23 19 14 11 6 8 8 7 7 8 9 13 12 10 18 27 36 38 35 27 22 16 13 13 15 12 17 18 16 10
35 35 36 36 36 37 41 41 39 38 37 35 33 30 29 29 26 24 18 14 13 9 11 7 11 10 12 11 12 12 14 16 17 13 25 35 45 38 29 25 20 16 7 4 4 5 8
38 38 39 37 36 40 40 39 41 41 40 38 38 36 31 30 28 25 18 23 13 20 37 17 8 5 8 9 13 13 12 16 17 18 15 10 10 12 25 32 31 25 27 12 7 6 4
38 40 40 41 41 42 41 39 41 39 38 35 35 38 35 30 27 24 24 25 28 34 28 27 29 22 15 14 12 9 11 16 16 15 14 6 10 6 13 10 19 22 27 27 23 13 6
44 42 43 41 41 39 34 38 38 34 31 31 35 34 36 30 27 25 29 32 35 36 33 22 23 17 18 24 18 11 10 3 3 7 15 19 21 19 17 16 15 25 14 11 13 4 7
49 43 43 40 46 44 40 31 28 30 29 31 27 32 36 28 23 26 37 38 39 40 35 28 23 21 18 13 14 14 11 17 14 15 15 12 18 19 16 15 19 20 24 21 15 20 8
36 50 40 42 35 44 45 37 32 33 37 30 35 33 35 26 29 34 39 39 39 39 41 34 31 29 28 25 20 16 17 11 11 10 12 15 10 12 17 20 23 19 22 21 23 17 16
33 38 47 38 37 36 40 35 29 34 39 33 33 30 32 24 34 38 37 37 45 36 37 24 33 31 30 27 22 23 30 31 31 31 16 15 9 7 12 11 17 22 29 31 20 18 22
33 38 42 43 28 38 36 38 31 29 33 36 35 33 34 36 35 36 39 43 41 41 41 29 33 29 27 22 25 25 21 15 16 13 15 14 17 16 18 15 15 15 11 17 25 26 33
31 32 34 39 45 31 26 28 29 29 35 39 36 32 36 28 41 38 36 37 40 43 42 31 36 38 26 21 29 35 29 27 23 18 21 30 30 29 34 34 30 28 28 23 22 34 28
28 27 29 27 32 27 20 29 30 30 29 43 40 38 33 31 27 35 34 37 36 35 37 24 34 28 19 26 30 15 7 8 17 22 15 9 15 16 28 29 24 25 29 34 34 35 34
23 24 27 25 26 26 28 28 31 28 34 42 46 47 44 37 29 27 34 36 33 35 37 31 26 22 26 24 19 20 22 23 24 22 22 23 21 13 18 15 14 15 33 26 29 36 37
22 21 22 23 25 27 29 32 33 33 31 40 43 44 45 41 36 39 38 38 35 32 26 21 28 25 27 29 31 28 26 23 20 25 26 24 24 16 18 16 11 21 22 20 18 22 24
18 20 20 22 23 24 25 27 29 30 27 34 32 32 35 38 35 38 34 30 32 35 30 32 31 28 27 17 15 22 25 26 31 28 29 27 30 22 18 19 21 31 26 24 20 23 16
17 19 19 20 19 20 23 26 27 28 30 31 33 29 29 31 37 34 37 36 37 35 33 33 30 25 30 27 24 17 10 14 7 9 16 23 30 30 17 9 8 14 9 6 7 24 16
16 17 18 18 19 21 22 23 24 26 28 30 33 34 32 33 37 36 37 36 34 32 30 29 23 20 21 20 21 24 15 15 13 16 9 8 20 33 31 21 19 32 21 16 13 18 10
19 20 21 21 21 22 23 25 26 27 28 30 33 32 33 34 37 38 38 36 31 31 32 30 26 27 25 20 16 22 18 19 22 20 21 22 13 14 21 17 19 20 16 26 21 13 16
19 20 22 23 24 26 28 29 29 29 30 30 34 35 34 35 32 30 34 33 33 32 31 29 27 21 13 17 22 20 25 11 13 15 20 22 25 19 15 15 17 14 17 14 17 15 16

GFSGBSN_700_spd_162.txt.gz
Wind_Speed
36 36 36 35 34 34 34 36 36 35 34 34 33 33 34 34 35 34 32 32 31 31 31 30 29 27 25 24 26 23 23 23 22 21 20 18 17 16 14 18 19 19 20 20 18 17 19
39 39 39 39 38 38 38 38 37 37 36 36 35 35 34 36 36 34 34 32 32 33 31 34 31 30 29 29 24 24 23 22 21 19 19 19 19 16 17 18 17 20 19 21 23 20 20
41 41 40 40 40 40 40 40 40 39 38 38 38 36 34 34 34 33 32 32 31 32 32 30 33 31 29 27 27 25 24 22 21 21 22 22 20 17 17 15 19 21 22 18 22 18 16
43 43 42 41 41 40 40 40 39 39 40 39 38 37 36 34 35 34 32 31 33 32 33 31 30 32 31 28 27 25 24 23 25 23 21 22 21 20 21 20 20 17 18 17 14 17 18
44 46 44 44 44 43 41 40 40 39 38 37 37 37 34 34 34 34 33 33 34 33 33 32 30 30 32 26 20 18 20 20 20 20 23 25 26 23 21 15 12 14 18 16 15 17 14
42 42 43 42 39 38 39 40 39 37 36 34 33 34 35 35 32 32 32 33 33 33 34 32 32 29 26 24 23 24 19 17 14 17 17 21 22 19 20 12 13 12 13 16 17 12 17
41 41 41 41 41 39 39 39 39 40 40 38 35 35 32 31 31 31 29 30 33 33 33 30 27 26 24 27 26 21 17 19 16 16 19 20 17 21 13 13 15 14 13 15 17 13 17
41 38 38 38 37 38 38 39 39 38 38 38 37 37 34 32 30 27 27 27 28 29 33 30 30 32 25 29 32 28 23 20 22 19 16 19 22 17 16 18 20 18 16 19 19 17 19
37 36 35 35 34 35 34 35 35 35 34 34 34 34 31 29 26 24 23 23 24 24 29 33 31 35 27 31 33 28 28 27 29 21 22 24 16 14 16 19 21 20 18 17 18 15 21
36 35 34 33 32 32 32 32 32 32 31 30 31 31 29 25 25 22 20 18 19 19 17 28 27 27 24 26 31 26 30 33 26 25 22 23 25 27 27 22 18 22 19 20 18 12 13
39 38 38 39 37 36 33 31 31 31 30 29 29 28 27 25 22 19 17 15 12 11 5 11 10 13 9 12 12 10 17 32 39 25 23 15 14 18 21 23 19 20 18 15 14 16 20
39 38 37 37 37 37 37 38 36 33 32 29 28 27 25 23 21 18 15 13 8 4 9 8 6 7 9 11 13 10 10 16 20 30 29 29 22 19 13 13 14 16 12 13 13 14 18
37 38 36 36 34 34 34 35 37 35 34 33 32 30 27 25 22 18 16 14 11 14 8 5 6 9 10 9 10 11 13 13 9 7 18 20 31 29 26 18 18 15 11 12 11 10 15
39 41 35 33 34 31 30 30 30 32 36 35 35 33 32 30 25 22 19 19 14 22 34 15 8 3 4 5 7 10 8 11 15 13 8 8 9 14 22 30 27 19 23 17 11 12 13
41 40 42 39 37 38 36 36 36 35 32 32 35 35 37 32 27 25 24 26 21 26 24 17 14 21 24 15 14 12 11 16 12 12 11 8 8 7 7 7 17 18 21 22 27 27 17
43 43 40 38 42 43 40 38 38 36 37 37 31 27 34 27 27 27 31 32 26 23 21 19 18 16 20 22 22 16 16 8 10 11 16 8 12 12 13 14 17 20 8 9 9 5 7
40 43 44 44 41 42 42 41 40 37 33 39 33 34 39 28 23 27 37 35 33 25 30 19 24 23 20 17 15 18 20 14 13 10 8 10 12 15 11 11 16 17 20 15 10 11 8
37 32 36 41 47 42 44 42 43 40 35 31 32 32 35 27 30 34 37 38 25 20 26 29 28 22 22 17 14 14 14 10 11 13 10 11 10 16 21 18 18 19 19 22 20 15 22
30 28 29 31 33 49 41 42 43 42 41 32 30 40 32 25 31 34 33 35 32 20 20 21 25 24 18 20 16 19 18 20 17 13 6 10 6 11 16 18 16 16 19 19 17 15 25
28 28 28 30 30 32 46 44 32 41 37 28 34 35 33 31 31 27 28 29 25 26 26 22 19 16 16 21 22 17 14 14 18 16 16 15 19 21 22 21 9 10 12 12 13 8 16
26 26 28 29 31 31 34 34 34 36 36 31 38 36 30 26 34 32 27 25 30 29 27 18 26 19 17 20 19 20 20 21 19 22 17 22 24 20 28 27 22 25 30 29 25 25 22
27 26 26 27 29 30 32 35 29 42 36 36 37 34 32 27 31 28 33 32 33 27 30 18 22 19 16 27 25 19 7 9 12 9 7 8 12 13 25 23 23 29 33 32 30 32 32
24 23 24 23 25 26 26 31 30 29 32 36 30 28 33 30 30 29 34 33 29 25 25 22 21 15 20 22 23 22 23 23 22 19 17 17 15 13 22 13 14 16 33 30 30 32 30
18 19 21 21 22 24 26 26 26 29 32 32 30 33 33 33 30 32 23 25 26 24 20 15 22 24 19 22 21 22 24 23 22 24 22 22 20 20 25 18 16 26 21 18 21 25 23
18 19 20 21 20 20 23 27 28 30 29 30 34 29 30 26 29 26 25 25 27 24 27 30 24 16 17 18 11 11 17 21 30 29 28 25 23 25 24 23 25 26 23 19 18 27 19
17 17 18 19 19 20 20 24 27 31 29 29 29 29 37 34 36 25 25 25 25 19 16 20 17 17 17 12 10 8 9 12 12 14 19 29 31 30 25 21 19 31 12 9 15 29 15
13 15 17 16 19 20 19 21 23 23 23 22 25 27 21 22 25 24 24 22 21 22 22 17 17 20 19 20 19 25 24 20 12 19 15 14 24 33 33 31 33 32 24 19 17 23 11
15 15 15 17 17 18 20 21 23 23 23 24 23 23 23 24 25 27 28 28 22 24 24 18 16 18 16 17 18 22 25 24 23 25 22 23 17 19 24 31 26 25 20 27 21 22 14
16 16 17 18 19 20 20 21 23 24 24 24 24 23 26 27 23 23 27 30 25 23 21 22 22 14 15 16 21 20 23 21 18 30 25 31 27 23 15 12 16 16 17 20 29 26 18

GFSGBSN_700_spd_165.txt.gz
Wind_Speed
40 38 36 36 35 35 34 32 33 33 34 35 34 35 35 34 33 33 32 32 32 32 32 31 32 30 26 26 26 30 24 25 24 23 20 18 15 13 15 15 15 18 17 18 15 15 14
40 39 38 38 38 37 36 36 36 36 36 36 36 34 34 34 35 34 34 34 34 32 32 32 32 32 31 31 27 30 28 24 23 23 18 16 12 14 18 17 17 15 15 16 17 18 17
42 41 40 41 40 39 38 38 38 38 37 37 38 36 36 37 37 36 33 33 33 32 31 31 31 32 32 29 26 28 27 26 25 23 21 15 21 18 12 13 17 19 19 19 20 20 19
44 43 42 41 39 39 39 39 39 40 39 38 38 38 37 37 36 35 35 34 33 33 32 30 31 33 34 30 30 29 26 25 22 22 22 24 24 21 20 17 20 20 19 22 17 20 18
44 43 43 43 41 41 43 42 41 40 39 38 36 37 36 35 36 35 35 34 32 31 33 32 31 32 34 32 28 25 18 16 19 22 23 22 22 20 16 15 19 19 23 19 17 15 14
43 43 42 41 41 41 40 39 39 39 38 38 36 35 34 34 32 31 33 33 33 32 32 30 32 30 24 22 22 23 16 14 13 12 13 17 16 14 15 17 22 16 17 16 16 13 12
40 37 38 38 39 38 38 38 38 38 36 35 34 34 33 31 31 30 27 30 29 30 34 31 18 28 21 24 26 24 17 17 16 15 16 16 15 21 16 20 20 20 17 20 19 15 17
36 38 39 41 43 40 39 37 37 38 38 37 36 35 34 33 32 31 29 26 32 31 32 34 32 35 30 28 32 27 20 22 18 22 19 21 25 22 18 19 19 19 20 21 19 17 18
36 38 38 38 38 38 37 35 35 35 35 34 33 33 31 29 29 29 27 27 24 24 31 32 32 35 30 32 35 30 24 22 23 23 23 27 20 13 19 21 20 21 23 22 21 21 21
39 36 34 34 34 33 32 31 30 30 31 31 30 30 29 28 27 26 26 23 20 19 17 24 20 25 26 28 31 28 30 28 27 30 24 29 26 27 21 21 20 23 20 22 22 21 24
39 38 37 36 34 33 32 31 29 29 28 28 28 26 26 25 25 22 21 17 13 10 6 6 9 16 9 16 13 8 21 27 32 28 21 28 22 21 29 29 24 28 22 22 22 26 26
39 39 38 38 37 37 37 34 34 34 33 30 27 26 26 25 23 21 19 14 9 6 9 8 4 4 6 10 14 10 8 14 19 28 30 30 22 16 16 19 21 19 17 19 20 22 23
33 33 37 37 36 34 35 34 34 35 34 33 32 29 28 27 25 22 18 15 10 15 9 13 9 7 7 7 7 8 8 10 8 7 18 25 35 29 24 20 15 17 17 17 18 17 19
34 35 35 35 35 33 32 31 27 27 28 29 32 33 31 29 28 24 22 21 15 23 32 6 5 3 4 4 14 15 12 14 15 13 11 14 15 23 26 29 25 19 21 18 12 15 20
46 45 41 40 40 37 34 32 30 30 25 26 27 27 29 32 30 28 26 26 24 27 27 25 26 30 26 23 13 8 12 16 15 17 13 13 26 13 9 19 22 24 27 21 27 31 22
35 41 46 41 38 40 39 36 35 35 35 32 31 28 27 24 22 28 30 37 33 25 25 18 24 22 20 20 22 26 23 19 15 13 21 18 21 16 13 9 14 22 12 11 10 5 11
40 37 37 39 43 42 41 42 41 39 37 36 33 34 33 31 27 28 37 39 37 33 22 19 24 28 29 26 23 25 26 19 12 7 2 10 19 22 13 18 18 15 21 22 18 9 10
44 42 41 39 35 38 43 41 43 41 36 38 37 38 35 30 32 34 38 41 31 22 23 25 23 22 24 25 26 25 21 18 10 8 11 8 8 19 24 21 18 22 20 25 27 19 18
34 30 30 29 31 33 35 43 45 43 42 40 45 43 37 37 34 37 34 31 31 28 30 24 27 25 23 26 24 21 19 10 3 5 7 8 11 20 28 31 30 28 26 29 29 26 25
30 29 27 27 27 30 32 33 38 46 42 41 47 48 42 40 42 29 29 30 28 28 30 22 26 23 26 26 25 24 18 18 13 13 20 24 25 27 23 24 18 15 19 13 17 16 29
29 26 26 26 26 26 29 29 31 36 41 39 56 34 38 36 47 37 24 20 25 26 27 24 30 25 22 25 25 27 26 25 18 16 19 15 22 26 32 33 34 34 32 24 25 24 24
29 28 27 25 25 25 26 29 30 30 39 42 44 37 45 21 28 32 30 28 27 23 28 24 24 24 28 28 25 22 19 23 26 20 19 18 23 21 29 30 30 34 37 38 34 35 36
27 27 27 28 27 27 27 28 26 29 33 36 51 46 32 32 23 27 28 27 25 23 25 26 20 20 22 20 19 18 26 20 15 17 18 19 17 19 26 21 22 23 39 32 32 33 35
24 23 21 21 22 24 24 24 26 26 34 35 47 41 34 24 23 25 24 24 25 23 22 23 23 21 17 22 22 28 27 23 24 27 26 27 24 24 29 25 21 33 22 24 27 26 25
18 18 19 19 21 22 22 23 22 24 25 31 32 34 33 23 21 22 26 25 24 22 26 24 15 18 24 18 19 14 20 21 29 31 29 28 29 31 30 31 30 28 30 22 18 28 29
17 17 18 18 19 19 19 20 27 16 22 25 27 25 23 25 22 21 26 27 24 22 19 17 17 19 23 18 10 7 16 18 10 27 32 34 33 33 29 22 23 38 29 26 24 33 24
16 16 17 17 17 17 17 19 21 25 19 20 23 24 23 19 20 21 24 21 22 21 20 17 15 13 15 14 15 17 21 18 19 14 15 31 39 40 37 32 37 34 25 18 16 25 17
15 14 14 16 15 16 16 17 18 19 20 16 20 22 21 20 17 16 17 25 23 28 22 16 12 16 15 18 18 21 23 28 30 31 29 18 9 18 34 35 25 27 26 31 35 25 21
16 15 15 14 15 15 14 16 16 16 16 15 14 14 14 18 17 20 20 23 17 16 16 19 19 13 15 17 19 23 23 19 22 32 30 35 31 30 20 15 15 16 20 18 16 23 23

GFSGBSN_700_spd_168.txt.gz
Wind_Speed
37 37 38 37 37 36 34 33 33 33 32 33 34 33 34 34 34 34 35 32 31 33 33 33 33 33 30 27 30 28 32 25 24 24 22 20 19 14 17 16 18 19 19 21 20 21 18
39 39 40 39 37 36 35 36 36 35 35 34 34 35 35 34 33 33 34 34 33 34 33 33 33 33 33 33 24 22 28 25 22 22 23 16 15 14 23 18 18 20 21 21 19 19 20
43 42 42 42 41 40 38 38 37 37 37 37 36 37 36 35 36 35 35 36 35 33 35 34 34 35 34 31 28 25 27 25 22 21 23 19 13 19 13 16 13 16 20 22 22 23 24
44 45 48 46 44 43 41 41 40 39 38 38 38 37 37 37 35 35 35 35 33 33 32 34 34 36 39 30 31 31 26 26 22 21 23 21 20 23 21 19 23 20 21 27 21 21 23
50 44 44 45 45 42 42 42 42 40 40 39 39 38 37 36 36 34 34 34 36 35 33 32 32 35 37 29 28 28 26 16 15 16 20 23 25 24 18 18 21 18 24 24 21 18 19
47 46 47 48 47 44 43 40 41 41 40 39 37 37 36 35 34 32 29 29 29 31 31 31 33 31 24 16 23 18 19 15 16 12 14 15 19 18 17 18 26 22 24 18 19 13 12
49 46 46 45 45 43 37 37 37 37 36 36 35 34 32 31 31 30 29 29 29 23 30 29 18 28 12 9 22 20 18 20 18 16 19 19 19 22 22 21 22 23 24 23 21 15 18
34 35 33 34 33 35 39 37 35 36 38 35 34 33 33 32 32 31 30 27 29 32 38 35 36 38 37 33 33 28 19 20 18 22 20 21 34 24 22 23 23 23 24 24 23 20 21
34 34 33 34 33 34 35 34 36 36 35 33 32 32 31 31 30 29 26 27 27 26 35 40 35 35 30 26 36 32 27 25 27 26 25 31 29 25 26 27 26 26 26 24 24 21 24
33 33 33 33 31 31 31 31 31 31 31 30 28 28 27 27 28 25 23 24 22 22 22 32 24 20 23 25 33 27 29 31 32 35 27 32 24 27 28 23 21 29 24 24 25 24 25
37 37 37 36 35 34 32 29 29 28 26 26 25 24 24 24 24 18 26 16 14 10 6 6 10 16 11 15 10 8 13 24 37 33 29 41 29 28 31 32 27 32 23 23 24 25 24
38 38 37 37 35 35 35 35 33 32 31 31 30 27 25 24 23 23 17 13 10 6 10 7 8 7 9 10 18 14 12 20 20 30 32 39 29 25 22 23 24 23 24 24 24 23 20
33 35 36 36 36 34 35 34 33 33 33 32 33 30 27 26 25 25 19 15 13 15 8 15 19 12 10 11 10 14 13 12 11 10 23 35 40 36 24 22 22 15 15 11 11 17 16
33 33 30 30 33 32 35 33 32 31 29 29 29 32 30 28 26 25 22 21 16 20 35 8 5 8 10 7 11 17 14 16 16 16 14 16 19 24 33 39 27 25 21 15 10 9 14
39 40 37 36 35 34 32 33 29 29 26 23 26 28 30 26 27 29 24 24 28 32 27 21 22 30 30 25 21 18 16 16 17 17 13 12 30 20 11 15 29 29 30 24 26 29 19
38 37 38 43 43 39 37 37 35 32 28 27 29 27 23 20 21 24 28 35 36 31 26 21 25 24 30 28 23 23 27 28 23 15 14 15 18 18 13 14 18 27 22 21 7 5 11
45 44 38 35 37 37 45 38 34 35 34 29 31 35 35 28 26 26 34 43 43 39 27 27 25 23 27 26 26 25 25 23 17 18 21 16 21 23 15 18 18 16 17 15 9 6 2
36 42 38 36 38 35 34 35 40 36 37 37 33 42 38 35 32 37 36 35 33 35 27 26 32 33 22 22 22 23 26 27 14 13 11 13 8 17 22 17 16 15 14 21 18 15 14
36 36 32 32 31 33 36 35 32 36 40 38 38 40 41 36 35 39 38 35 35 30 32 30 27 25 23 27 26 28 22 15 17 20 9 5 8 16 18 17 17 21 20 9 16 22 21
33 34 33 32 27 26 27 28 30 31 36 41 40 40 35 43 39 34 33 32 31 30 32 31 30 28 27 25 27 26 24 22 15 12 17 17 13 15 17 17 19 20 20 22 16 16 20
29 31 30 28 25 26 26 26 28 30 30 36 39 47 45 27 47 50 35 28 28 35 33 30 31 27 23 26 24 27 25 25 21 16 18 10 19 24 27 29 31 37 31 30 30 31 26
23 24 26 27 25 24 24 24 25 27 27 34 42 32 40 42 46 48 54 40 33 23 28 23 21 26 24 29 25 28 24 24 23 15 19 16 22 22 22 25 27 30 33 36 33 33 31
23 25 27 28 27 25 24 24 23 24 28 36 37 38 42 46 45 42 45 42 37 27 23 21 24 23 26 21 30 29 22 20 20 12 13 16 20 17 25 23 25 26 37 33 32 30 31
21 24 26 26 26 27 27 27 28 26 29 33 35 36 31 34 25 39 35 33 30 23 22 16 16 15 18 22 20 25 26 20 16 20 15 15 18 19 20 21 18 33 26 25 26 27 27
21 22 22 21 21 21 20 23 24 24 27 30 28 28 33 28 40 27 27 29 25 24 22 19 23 24 27 22 19 16 20 18 28 29 28 32 26 27 28 28 28 28 31 23 26 33 30
18 18 18 18 19 20 20 20 21 23 25 27 25 23 26 38 31 16 22 26 25 29 26 20 21 23 15 17 13 9 18 17 17 23 29 33 36 36 33 22 21 43 35 27 27 32 33
16 16 17 17 17 17 17 18 19 20 24 21 29 29 27 20 26 13 14 9 15 14 20 20 21 21 21 14 10 14 19 16 23 21 23 21 35 38 41 35 35 42 28 28 15 28 14
15 16 15 15 15 14 14 15 16 16 17 16 18 18 13 13 13 15 13 14 18 26 19 20 19 16 18 16 11 12 14 19 24 27 27 26 17 20 37 33 26 23 22 25 31 22 18
14 14 14 12 12 13 12 13 13 11 11 11 7 11 15 16 12 16 17 19 18 17 18 20 21 17 15 13 13 9 15 16 18 28 24 35 34 31 24 12 30 20 19 22 16 13 19

GFSGBSN_700_spd_174.txt.gz
Wind_Speed
32 34 33 32 32 32 31 31 31 31 31 31 32 33 33 32 33 33 32 32 32 33 34 34 33 35 29 27 23 23 22 21 18 18 21 19 19 20 22 23 22 23 23 27 26 22 22
37 39 39 40 34 36 38 38 38 35 33 33 32 33 34 36 34 35 35 34 34 35 36 35 34 35 34 30 18 17 20 20 17 19 16 16 17 17 23 25 24 26 26 29 31 30 28
38 38 35 34 34 39 39 40 37 38 36 35 35 36 36 38 38 38 37 37 37 37 38 41 37 37 35 29 27 25 27 23 23 18 16 16 19 21 23 26 19 21 26 29 30 33 34
43 44 39 41 44 45 40 39 38 37 38 36 34 35 37 37 39 39 38 36 36 38 36 38 38 38 32 28 26 23 25 23 23 22 21 19 21 25 26 27 26 25 27 31 20 20 22
42 44 40 41 41 40 41 42 42 39 44 40 39 39 39 39 39 40 37 36 35 35 35 35 35 35 28 24 21 20 19 18 21 21 24 21 21 24 25 27 28 27 27 28 27 13 11
44 36 39 39 40 45 45 46 46 47 41 41 42 40 40 40 39 38 37 36 35 35 35 34 36 33 22 19 23 23 22 19 20 21 21 22 21 22 26 28 29 29 26 26 26 18 17
42 37 37 41 45 47 49 44 42 42 43 44 43 41 40 38 36 35 32 32 36 36 36 36 34 35 29 28 27 25 23 26 27 21 21 21 25 34 31 28 28 27 29 31 22 18 29
42 43 40 39 39 40 41 42 41 39 38 38 38 37 36 34 32 32 32 33 35 36 43 37 38 43 38 32 41 34 29 26 28 29 25 25 37 33 31 28 27 27 30 33 32 27 30
42 37 37 39 39 36 36 36 34 33 34 33 32 31 31 31 32 31 30 29 29 28 39 49 41 45 41 35 43 38 31 35 33 33 30 35 29 20 29 34 32 34 35 34 36 30 33
33 31 31 29 31 31 31 30 29 30 29 28 28 28 27 27 27 29 27 24 23 24 26 39 27 21 16 25 35 35 32 37 44 44 39 40 39 36 34 33 27 40 31 34 40 39 24
27 26 27 27 25 26 27 27 27 27 28 27 26 25 25 23 24 24 20 17 17 14 6 6 4 5 4 11 8 12 11 21 34 37 32 46 24 21 35 34 34 40 29 32 28 35 30
25 25 26 25 25 27 30 30 30 30 29 28 27 25 22 22 22 21 16 13 12 7 9 4 4 5 9 9 14 18 16 16 24 33 35 41 40 41 38 32 31 31 28 27 25 24 9
31 32 31 31 33 34 34 33 33 32 31 30 29 28 24 23 20 21 18 14 11 12 4 4 11 7 8 11 11 11 14 19 16 12 22 27 30 28 31 43 41 32 27 6 10 7 10
27 27 28 27 28 27 30 30 30 32 31 29 29 30 26 23 20 23 19 19 17 14 32 12 11 11 13 6 12 12 13 12 11 17 19 14 12 4 4 17 37 40 34 18 7 9 12
31 29 29 29 28 27 26 25 26 25 26 27 26 26 26 17 16 21 20 27 36 35 22 14 19 17 22 17 13 15 9 15 19 18 18 9 14 13 11 17 10 24 32 26 28 24 5
33 33 35 32 33 30 29 30 29 27 25 24 24 25 27 16 20 21 24 34 37 35 30 21 15 9 13 17 18 17 12 9 6 9 12 9 18 8 14 22 11 5 15 25 15 4 5
35 34 32 36 37 37 35 33 33 32 34 30 26 26 28 23 23 28 36 39 35 34 38 29 28 27 25 26 19 17 8 12 6 6 4 8 12 15 18 17 18 15 13 6 5 14 5
35 35 34 33 32 31 34 36 33 28 26 30 33 31 31 30 28 33 34 40 34 31 32 30 26 33 33 30 29 20 17 19 13 16 13 12 10 21 20 23 17 17 20 20 8 2 5
36 31 33 26 24 25 24 24 26 30 29 29 28 32 33 34 28 31 41 40 43 36 31 27 28 29 26 30 21 25 19 23 22 23 12 12 6 10 11 7 9 4 5 3 7 6 1
30 27 29 26 28 26 27 26 26 25 27 27 29 28 32 35 39 38 31 36 37 37 39 41 38 33 31 31 30 29 32 27 13 16 23 17 18 18 19 13 6 7 12 9 11 10 7
25 23 25 27 27 26 25 25 25 26 25 24 26 31 32 25 19 27 31 39 42 43 40 41 32 30 27 26 31 30 30 25 22 16 17 15 18 21 26 25 24 21 21 18 20 20 19
21 21 22 23 25 25 24 22 23 24 24 24 27 29 33 37 37 38 35 27 30 28 23 27 28 29 30 33 31 31 21 25 18 16 19 20 20 18 24 31 24 20 23 24 22 24 25
22 22 22 19 18 17 18 19 19 19 22 26 27 28 28 33 34 34 34 33 20 23 34 38 31 32 30 28 29 34 34 29 26 24 13 17 20 13 13 25 20 17 28 21 23 21 21
14 12 12 13 14 16 17 18 19 20 23 24 25 25 27 34 32 34 36 36 37 34 31 33 32 33 36 35 32 30 24 20 25 26 26 25 18 13 14 11 5 28 22 13 6 9 13
13 14 13 17 20 21 20 21 21 21 23 24 23 25 25 31 29 29 27 29 34 35 33 38 41 33 33 29 29 16 12 16 23 22 21 24 24 20 7 12 19 28 19 6 12 21 28
13 14 15 16 17 19 21 21 20 19 20 23 25 24 26 31 34 25 20 20 25 27 27 30 34 37 35 38 25 13 9 12 6 6 8 15 28 25 14 7 4 32 14 14 15 23 28
13 14 14 14 14 14 15 15 15 16 18 20 17 17 21 28 28 24 25 23 23 20 26 31 23 31 33 28 23 15 13 12 10 13 14 9 10 23 23 15 16 19 17 10 10 22 17
13 13 12 12 13 13 13 14 13 14 16 16 15 17 21 28 26 24 22 23 20 16 17 16 21 24 31 23 18 14 12 18 19 19 19 19 12 11 9 7 7 7 15 12 16 24 25
12 11 11 11 10 11 11 11 10 11 12 11 11 13 16 22 24 15 19 23 22 9 8 8 11 17 15 17 14 12 12 10 18 12 20 19 21 15 13 16 20 23 18 18 19 24 26

GFSGBSN_700_spd_177.txt.gz
Wind_Speed
30 29 28 27 30 30 29 30 31 30 31 31 32 32 31 30 31 31 30 32 33 35 35 37 36 34 31 29 24 20 24 24 21 18 17 19 19 17 22 23 23 24 24 26 30 30 29
33 32 34 35 35 34 36 36 34 37 38 37 35 33 32 32 32 32 33 34 34 36 38 38 39 37 35 33 20 17 19 21 21 20 19 20 21 18 23 24 25 25 25 27 32 34 36
38 34 36 39 39 39 39 36 35 37 37 36 35 36 36 33 33 31 32 31 34 36 38 37 38 37 35 30 28 24 23 25 26 25 22 20 20 20 23 26 22 25 28 27 29 29 32
42 42 44 44 43 43 44 47 43 38 41 35 37 35 33 35 35 36 33 33 35 36 38 37 35 35 30 28 27 23 23 21 23 25 24 22 23 24 26 28 30 30 30 35 26 17 18
44 42 40 41 40 42 40 37 36 36 37 38 40 44 42 39 37 37 37 37 38 39 39 38 38 36 30 25 23 20 18 18 19 20 24 26 28 29 27 30 32 31 30 32 33 24 22
42 45 41 35 37 36 37 37 37 38 41 39 41 41 38 38 39 39 38 39 38 38 39 39 41 36 25 23 25 24 15 21 21 24 22 25 27 28 28 31 30 26 28 29 28 25 21
38 38 37 41 42 39 39 37 36 39 43 43 41 41 42 40 40 39 36 36 36 37 40 38 38 39 35 28 30 27 25 26 27 29 27 27 29 35 34 33 32 32 35 35 33 25 33
41 42 45 45 46 41 42 40 40 39 39 39 41 41 41 37 35 35 34 34 35 38 45 40 41 45 37 33 43 33 30 32 30 31 28 30 37 34 29 30 33 33 34 38 36 27 29
37 42 43 44 45 40 43 41 39 39 40 38 38 36 34 32 30 30 31 31 30 31 40 49 38 42 37 35 43 39 35 40 40 37 34 37 29 17 30 34 34 38 38 37 38 31 30
35 37 39 40 40 37 36 39 40 40 39 36 33 33 31 29 29 29 27 24 22 24 24 35 25 18 13 18 30 28 29 35 43 47 43 39 41 39 37 32 26 39 30 30 30 27 26
35 35 36 35 33 30 30 29 27 29 29 28 28 27 26 23 25 25 20 17 17 15 6 8 5 8 9 8 7 8 6 16 33 38 34 35 24 17 25 35 35 51 38 31 26 26 28
36 35 34 31 29 27 27 27 26 25 25 25 24 25 25 24 24 22 17 16 12 7 9 4 5 10 11 9 8 10 14 14 17 19 29 37 35 34 36 32 26 27 27 27 28 25 16
32 32 32 30 27 26 26 27 28 28 29 28 28 28 26 24 21 19 15 15 10 11 6 5 9 13 12 14 13 11 10 15 19 11 18 23 30 31 28 31 30 36 35 7 7 8 15
26 26 26 27 26 27 28 29 30 29 27 27 27 28 26 23 21 21 20 20 17 15 28 10 7 9 10 14 11 11 13 15 17 21 20 15 11 7 10 7 15 21 26 24 8 8 13
24 23 24 23 22 24 24 23 25 24 23 24 26 26 28 18 21 22 19 23 36 34 24 19 26 23 21 14 13 12 6 9 12 17 16 11 14 7 14 18 10 5 14 30 35 38 12
31 31 31 30 29 29 29 27 27 24 22 23 24 24 24 18 22 21 24 32 34 32 29 16 13 10 14 15 14 10 10 6 8 9 17 17 19 16 14 15 12 10 9 8 16 8 13
35 33 33 30 29 29 32 30 32 28 25 28 30 25 25 21 23 26 29 35 36 33 36 29 34 26 22 23 20 16 11 16 14 10 3 11 10 12 11 11 15 19 14 11 10 8 7
34 34 37 35 32 30 28 28 29 31 31 29 30 27 31 30 26 30 34 39 29 37 33 24 36 41 32 29 30 26 23 18 10 17 14 9 10 18 19 22 17 17 18 20 7 5 6
30 30 32 29 30 31 27 28 26 25 26 28 32 28 27 30 27 32 34 36 37 40 38 28 26 31 27 24 17 25 30 27 17 17 20 14 6 7 12 6 6 8 6 9 8 7 3
30 32 30 27 25 22 23 22 22 24 20 20 23 28 30 35 36 35 32 35 32 36 34 37 26 22 21 25 25 29 32 27 23 19 19 19 24 21 16 14 12 17 17 12 11 5 7
30 28 22 23 21 22 23 23 23 24 23 23 24 26 30 23 20 25 26 31 34 40 38 40 35 28 28 30 33 32 33 35 34 29 22 22 22 24 29 30 29 25 25 21 22 24 20
28 26 22 19 19 22 25 22 23 23 24 26 27 27 30 31 30 33 36 41 38 25 26 30 24 27 27 29 30 31 23 23 22 20 25 28 22 19 25 25 24 24 25 26 25 25 28
19 18 19 20 21 22 22 22 20 22 23 25 24 24 25 30 31 31 34 35 37 28 36 26 19 26 34 31 19 27 25 29 30 25 24 26 25 21 15 21 12 11 23 22 30 24 18
19 19 19 20 19 17 16 15 17 20 21 22 22 22 24 33 30 29 29 29 33 31 34 40 33 25 27 28 26 28 30 25 27 34 33 30 22 18 14 15 3 19 15 10 9 10 10
13 14 15 12 15 14 16 16 18 20 21 22 22 23 24 31 30 30 27 24 23 23 31 36 39 28 22 26 33 30 23 24 37 33 31 27 25 18 9 12 16 31 18 10 8 14 16
11 11 13 13 14 18 20 21 21 22 23 25 24 23 26 31 35 27 23 20 21 20 19 23 25 29 30 28 27 16 12 18 6 10 19 22 23 24 13 5 5 14 8 14 13 20 18
12 12 13 14 16 17 18 20 21 20 19 22 18 19 22 28 30 22 23 20 22 23 28 27 23 23 26 33 33 24 11 17 13 13 12 23 27 31 24 13 14 24 18 11 9 9 7
11 11 12 13 14 14 15 15 16 16 19 21 18 18 21 26 28 22 21 24 24 20 23 28 24 24 26 33 35 21 19 25 21 21 21 24 19 19 21 16 15 14 16 13 9 16 17
11 11 12 12 12 12 13 13 13 15 16 17 15 15 18 24 26 24 23 20 22 19 21 15 13 10 3 12 12 15 12 17 23 16 22 22 26 22 18 20 10 15 13 13 15 21 24

GFSGBSN_700_spd_183.txt.gz
Wind_Speed
36 36 34 33 34 34 33 33 31 30 29 27 26 27 29 29 30 31 31 31 29 28 29 29 28 27 25 25 22 22 19 17 20 23 21 18 22 20 21 22 23 25 26 27 29 30 30
37 38 36 36 36 35 35 35 33 30 28 29 29 31 33 33 33 33 32 31 30 30 29 29 30 27 25 26 23 20 20 21 22 21 21 20 20 21 23 24 24 25 27 28 29 30 31
40 40 39 37 36 36 36 36 34 32 32 33 34 34 35 36 38 35 35 34 34 35 33 30 29 29 26 26 26 27 25 23 22 25 25 24 25 26 27 26 24 24 27 27 28 27 25
44 42 42 40 39 38 39 39 37 35 38 37 36 37 36 37 37 36 33 33 35 34 32 31 31 31 29 30 31 29 27 25 23 21 23 23 25 27 28 27 29 29 32 33 25 24 24
49 48 47 45 42 38 41 38 37 37 39 41 39 35 34 34 33 32 31 30 32 33 31 34 34 36 34 23 19 20 18 17 17 20 22 21 20 24 28 27 30 30 26 30 35 28 27
54 52 50 46 45 44 42 38 39 44 42 40 38 33 35 33 32 29 27 30 34 36 36 36 38 33 15 12 14 14 13 15 20 25 26 24 23 23 25 27 24 23 23 29 29 25 28
58 58 58 50 56 48 42 42 39 45 42 37 34 33 32 34 35 35 35 36 37 38 38 33 33 34 31 29 29 25 31 31 27 28 27 29 30 34 30 26 26 30 29 34 36 34 39
59 57 61 58 53 55 46 45 46 41 38 36 41 38 37 35 36 34 35 32 35 36 43 34 33 40 33 35 37 24 35 36 32 31 28 31 38 34 30 29 29 31 33 36 39 31 32
62 69 66 58 50 45 44 42 36 34 30 37 37 38 35 35 33 35 36 35 32 36 38 41 30 28 26 27 35 26 34 37 39 42 42 45 37 18 22 28 31 33 34 35 36 34 36
66 52 48 42 36 31 38 24 14 12 12 18 25 30 32 35 35 34 34 32 30 33 27 27 6 5 8 9 11 13 22 30 35 41 42 40 41 43 39 37 29 34 30 28 28 20 20
58 45 39 33 24 12 6 10 8 11 19 24 29 32 33 35 33 30 28 25 24 23 5 8 3 4 8 7 10 6 10 14 19 20 28 35 32 28 30 35 29 39 28 27 23 22 23
32 37 36 28 21 16 15 14 14 19 23 28 29 29 26 24 22 19 17 16 16 6 7 1 1 3 6 7 6 9 8 11 13 14 16 23 26 24 21 19 16 15 14 14 17 14 13
26 25 25 24 23 21 17 22 27 29 30 29 28 24 19 18 17 15 11 11 7 8 3 3 2 2 6 9 10 10 11 13 13 10 13 15 18 22 24 28 25 23 15 6 7 8 12
26 21 16 19 23 25 24 25 26 23 22 21 20 20 17 16 15 12 10 13 12 9 13 10 9 8 13 17 12 6 12 12 12 14 17 10 10 5 11 21 17 21 33 18 10 9 9
16 17 23 27 29 26 24 22 20 16 16 17 18 18 15 18 18 16 15 20 14 15 21 17 23 27 27 13 16 22 22 15 6 5 5 6 9 10 9 12 10 8 15 22 21 23 10
22 24 24 24 23 20 18 16 17 16 15 14 15 14 12 14 15 13 17 26 22 22 26 24 18 12 19 21 21 19 24 17 17 10 8 10 13 9 15 20 16 16 12 7 7 5 9
23 22 22 22 19 17 17 16 16 15 15 16 17 16 14 13 14 16 21 21 24 23 23 26 21 21 21 21 22 19 14 21 24 23 21 26 19 22 16 4 3 5 9 8 7 7 3
23 23 22 20 19 19 18 17 17 16 16 17 18 19 18 17 19 21 24 21 24 28 23 19 21 21 21 21 24 26 26 27 25 20 20 22 18 22 25 28 31 33 21 17 11 6 7
27 26 26 25 24 23 20 20 19 19 18 16 18 16 17 17 20 24 25 24 25 28 29 27 22 25 27 28 25 32 34 35 36 38 35 29 22 19 26 21 19 20 19 23 21 20 19
29 29 29 28 25 21 22 22 20 20 19 18 19 17 22 18 21 19 19 21 24 28 31 29 26 24 27 29 28 28 28 25 22 25 22 22 22 21 16 19 11 14 20 23 19 11 15
27 28 27 25 23 22 20 18 18 19 18 17 16 16 18 12 13 16 16 17 17 23 17 14 22 25 17 21 24 29 29 33 33 26 26 27 26 31 29 29 30 29 26 28 26 28 19
23 22 22 22 22 20 18 17 18 18 18 19 19 18 20 21 21 19 19 22 26 29 28 30 30 30 28 28 31 29 19 15 22 22 33 34 33 32 31 38 33 33 34 36 35 29 29
22 21 22 22 21 18 18 19 20 19 19 21 19 18 18 22 23 22 24 25 25 25 31 32 28 30 35 37 32 40 41 28 27 29 23 19 20 18 28 26 23 21 37 34 36 34 28
21 24 21 19 18 18 17 17 17 18 21 18 15 16 18 22 22 21 21 20 22 21 28 27 25 27 29 19 27 35 34 38 31 29 24 29 25 20 20 16 12 24 19 18 17 20 24
19 18 15 15 15 15 16 17 18 18 18 16 14 15 16 20 20 20 19 21 21 21 25 27 24 22 18 21 28 27 24 25 38 35 26 27 30 22 15 18 18 19 21 20 18 21 19
14 14 14 14 14 15 16 15 15 14 14 13 13 14 18 20 22 19 20 19 21 21 23 22 18 12 17 21 25 17 13 19 16 22 22 26 34 32 17 8 10 23 17 18 21 22 20
12 11 11 11 11 10 11 12 13 14 15 14 14 16 18 23 23 19 16 17 18 19 24 24 19 16 15 25 28 24 26 19 26 25 23 17 31 35 33 20 17 19 11 12 16 10 11
10 10 10 10 9 10 11 12 15 16 17 18 17 19 21 24 20 19 20 18 15 16 18 19 20 8 11 18 20 15 21 22 27 31 23 19 15 21 32 19 9 19 24 24 20 18 14
8 8 9 9 10 11 12 13 15 15 16 18 16 16 18 21 21 17 18 17 21 23 25 26 24 18 19 19 14 14 17 11 21 27 26 27 28 22 17 21 15 14 18 16 18 16 16

GFSGBSN_700_spd_186.txt.gz
Wind_Speed
37 38 37 37 37 37 36 36 33 31 32 32 32 30 28 29 27 26 26 26 30 29 29 29 26 25 23 23 17 20 17 15 15 18 20 20 18 18 18 17 23 26 22 21 23 27 28
39 40 38 39 39 39 37 37 35 33 34 34 33 31 30 30 28 28 29 28 32 32 32 29 29 28 26 27 19 17 21 23 22 19 19 21 19 19 20 23 22 17 25 26 26 29 29
41 42 39 40 41 40 38 37 36 36 35 34 34 34 33 32 30 32 34 32 30 29 29 30 28 27 26 27 26 26 26 26 24 24 23 22 25 28 22 23 26 27 27 26 25 23 21
43 44 43 43 44 42 40 39 40 38 38 37 37 38 36 37 33 33 33 32 25 27 27 28 26 24 23 25 29 32 23 18 21 21 21 22 22 24 26 24 27 24 22 25 16 16 13
47 47 46 46 47 45 43 43 42 40 41 41 39 41 41 39 37 35 32 33 28 24 22 24 24 23 24 23 24 21 18 17 17 17 16 19 19 19 21 24 21 19 21 20 21 18 15
52 51 49 50 51 50 47 48 47 46 43 43 43 44 44 43 41 35 30 30 30 29 27 28 28 19 9 7 10 11 24 23 17 18 20 24 22 19 21 20 25 21 22 19 18 15 17
59 54 54 54 55 54 53 52 51 47 56 48 45 43 42 39 39 32 27 29 31 34 31 25 26 29 27 26 22 21 27 29 30 31 25 21 19 20 21 23 25 27 29 30 27 25 30
64 57 60 61 58 61 56 61 52 60 56 43 49 43 40 39 37 31 28 29 31 30 31 27 28 31 24 28 25 25 30 32 33 35 21 24 29 27 24 24 25 27 30 33 32 25 24
67 59 59 64 59 60 60 60 58 56 53 49 45 38 39 39 35 34 31 31 32 31 31 28 24 22 19 18 20 19 30 33 34 36 31 34 27 18 20 21 22 27 30 31 32 27 31
62 63 67 65 62 66 63 66 63 59 47 35 28 29 30 30 25 25 25 25 27 28 18 14 8 5 9 9 8 11 15 18 22 27 23 29 28 34 35 37 25 36 23 25 26 24 32
66 63 66 71 73 72 65 58 44 46 28 18 16 14 14 17 18 21 22 23 22 20 4 5 7 10 8 8 9 8 12 14 12 13 20 14 15 17 24 28 27 43 26 27 27 30 28
61 60 63 61 62 60 49 39 29 24 17 11 10 13 16 19 20 20 19 18 16 4 7 6 8 8 2 5 7 9 11 13 17 19 21 25 21 24 16 17 20 21 17 20 19 20 21
57 51 43 42 33 31 28 27 25 19 17 16 15 14 16 19 20 18 15 11 5 7 4 5 6 9 5 2 3 5 7 7 9 10 14 15 16 15 16 18 17 14 12 10 13 14 17
33 30 31 28 34 31 25 19 17 16 16 18 18 17 15 15 14 13 13 13 9 5 7 10 10 7 7 6 5 3 6 8 7 8 15 15 14 6 7 17 17 23 28 17 15 15 17
29 28 26 23 21 19 18 16 16 18 20 19 17 15 15 15 14 15 15 14 6 7 10 18 16 16 16 8 7 10 14 17 13 6 6 5 11 5 7 9 12 14 22 28 37 38 24
17 11 9 14 19 21 22 21 22 20 19 17 14 14 15 15 14 15 18 17 13 16 17 15 9 10 13 14 15 12 13 11 14 9 6 4 13 12 11 16 16 21 13 12 18 10 25
16 22 22 21 23 23 22 21 20 17 16 15 14 13 11 12 13 15 19 13 15 20 19 18 13 16 16 16 17 18 14 17 16 15 16 19 21 22 20 17 17 16 13 8 11 9 5
23 25 25 24 22 22 21 19 19 17 16 14 13 13 13 13 15 18 18 18 18 17 17 17 21 15 18 16 18 21 22 23 16 17 20 14 14 18 25 27 24 27 31 28 12 7 8
27 25 23 22 22 21 20 19 17 15 15 15 15 13 15 15 18 18 19 19 19 15 13 13 15 16 17 20 23 23 26 26 25 25 23 25 26 29 37 37 34 35 29 29 26 27 23
25 24 23 22 21 20 19 18 18 18 18 17 16 14 16 17 18 16 16 17 16 17 18 20 19 19 18 20 20 22 24 25 22 26 27 23 30 36 25 28 21 13 16 14 16 10 16
26 24 20 20 19 20 20 19 18 17 16 18 17 16 16 10 17 16 13 12 10 9 12 14 15 16 13 12 17 23 23 25 28 24 29 27 30 31 33 32 32 30 30 29 28 30 29
22 21 22 22 24 22 20 18 17 17 17 17 16 14 14 14 17 18 18 18 17 16 19 19 19 21 20 24 23 28 28 32 30 29 17 18 25 24 35 35 34 35 35 37 39 39 38
20 20 22 22 20 20 18 18 18 17 16 15 13 14 15 16 17 16 15 14 12 15 17 22 18 21 22 24 22 25 28 31 35 37 33 26 22 19 38 37 32 31 41 37 38 37 36
21 22 20 20 20 20 18 17 17 16 15 15 16 17 18 15 16 13 13 14 15 14 18 20 21 24 20 19 24 28 31 32 33 38 37 34 27 25 22 20 16 29 26 28 29 29 27
26 26 23 20 18 18 19 18 18 17 17 16 15 14 15 13 11 13 12 14 15 17 20 22 20 20 19 21 18 17 18 20 23 32 36 36 34 27 24 24 29 30 22 18 20 20 21
24 22 18 16 18 19 18 17 16 16 15 14 13 14 15 15 13 12 13 14 15 15 15 16 10 11 16 17 14 15 21 26 18 20 15 25 35 33 28 20 18 33 26 25 16 29 20
17 16 16 15 15 15 14 16 16 15 15 13 12 13 13 13 14 11 12 10 13 15 16 17 12 12 13 17 18 23 25 24 19 25 20 18 26 35 36 30 30 25 13 10 19 17 11
14 14 13 13 13 12 12 13 14 14 14 13 12 13 12 15 16 16 14 13 11 12 14 13 17 7 7 12 13 9 11 11 14 21 27 26 25 22 37 31 20 20 16 22 18 18 15
12 11 11 10 10 9 9 10 12 14 16 14 13 16 16 16 13 15 14 11 13 14 19 21 20 16 14 11 8 13 18 14 17 17 11 18 26 28 20 8 15 12 17 13 21 15 19

GFSGBSN_700_spd_189.txt.gz
Wind_Speed
43 40 37 37 37 36 36 36 36 35 34 35 35 34 32 30 30 31 29 26 25 27 26 28 27 23 22 27 26 20 20 17 14 15 15 18 16 12 17 18 18 24 24 24 24 22 22
46 42 39 38 38 38 38 37 37 37 36 37 36 35 33 31 33 31 30 28 27 29 30 30 29 24 23 27 24 21 19 22 22 23 18 17 20 13 18 17 19 20 22 23 22 24 25
49 44 41 40 40 40 40 40 38 39 39 38 38 37 35 34 34 33 31 30 29 29 29 26 26 26 25 26 25 24 23 24 26 27 25 22 21 22 16 16 19 22 26 26 27 25 26
51 48 42 40 42 42 42 43 40 41 41 39 39 38 36 35 36 36 35 34 32 30 29 28 24 24 26 25 24 24 24 22 19 18 21 22 21 21 22 22 23 22 23 27 22 20 16
52 50 46 41 42 44 45 45 43 42 42 42 41 41 38 36 38 39 38 37 35 33 29 24 23 22 25 22 21 22 22 19 17 16 17 18 19 17 14 19 22 22 28 25 20 14 16
54 53 50 46 47 46 48 48 47 46 46 46 45 44 41 40 40 40 41 38 37 34 26 23 26 23 20 23 16 13 18 19 23 24 21 20 19 14 19 21 26 22 24 25 22 19 20
58 57 55 54 53 50 51 52 50 51 49 49 50 47 45 43 42 45 41 36 33 33 29 25 19 24 24 27 26 26 28 28 27 26 22 19 19 25 21 23 26 28 31 32 30 27 30
63 61 60 56 59 54 55 56 55 54 52 53 55 52 50 51 48 41 40 35 35 33 31 30 28 29 27 27 23 28 30 31 27 27 22 24 33 25 23 25 27 28 31 35 34 30 32
64 68 66 63 64 62 59 61 58 57 57 58 58 59 50 58 52 41 36 37 33 32 31 27 31 31 27 25 27 27 32 31 30 28 25 32 30 13 19 23 25 30 31 33 36 31 35
56 57 61 69 64 63 64 64 62 60 60 63 62 69 59 56 49 41 38 34 31 26 14 17 18 18 16 18 17 19 24 23 19 16 16 24 27 31 32 33 26 41 26 30 32 30 29
55 49 54 58 65 62 64 64 62 59 65 62 61 69 63 58 45 35 30 23 19 10 5 9 11 15 15 16 13 12 17 15 12 14 13 11 8 15 19 21 22 42 29 32 32 34 33
46 52 51 60 61 62 64 65 64 62 70 67 66 65 51 39 29 22 18 14 10 8 9 7 9 10 10 10 10 9 11 17 18 19 19 24 23 19 22 20 19 21 23 26 28 32 23
52 50 59 66 67 65 62 73 70 70 67 61 46 33 29 31 26 18 13 11 6 9 5 9 9 8 9 10 7 7 10 10 13 19 20 20 22 18 20 19 19 17 16 13 18 21 21
53 46 62 66 62 61 65 63 56 43 36 29 21 19 20 21 22 22 20 14 9 7 13 10 9 7 10 10 8 10 9 13 15 15 21 25 29 23 14 13 18 21 22 25 17 18 22
47 52 58 59 53 48 36 32 31 32 29 23 21 22 20 17 16 18 21 15 7 9 12 7 8 10 13 11 10 9 12 18 20 19 19 21 28 14 9 15 13 17 30 34 37 42 34
33 47 56 50 33 31 32 30 28 25 22 22 21 20 20 20 20 22 23 16 10 18 13 13 8 7 9 12 12 11 12 8 10 11 13 18 24 27 22 17 20 22 25 19 19 10 28
46 47 44 35 35 31 28 25 23 23 21 20 19 18 18 19 20 24 26 16 12 13 18 13 12 15 12 13 16 16 12 13 14 15 15 16 18 22 19 24 29 31 28 22 15 11 7
37 37 34 30 29 26 24 22 24 25 23 23 20 19 19 19 20 20 21 13 12 10 14 12 16 14 16 16 18 20 23 21 15 15 21 21 29 31 33 31 29 32 30 28 20 7 17
25 25 24 21 24 26 28 29 27 24 21 21 22 19 19 19 17 19 13 13 12 12 13 12 12 10 12 17 18 20 24 22 22 22 21 20 17 29 34 36 37 42 43 43 45 33 30
31 30 27 28 29 29 30 25 24 22 22 21 19 18 19 20 20 15 17 16 16 15 16 19 16 12 13 18 20 19 19 18 19 21 19 19 27 36 30 36 37 40 39 28 31 25 20
30 32 31 29 29 25 27 26 24 21 21 20 19 17 17 17 25 20 14 12 14 15 14 15 12 13 14 15 15 19 20 23 24 23 24 22 27 33 40 41 41 46 47 46 35 37 27
30 31 30 24 22 24 24 22 20 18 20 20 21 19 17 12 12 14 16 17 12 13 11 12 13 14 13 18 20 26 26 28 30 30 29 30 35 29 35 35 40 44 44 39 39 40 42
18 18 19 22 23 20 18 17 19 20 21 19 18 14 12 15 15 16 16 14 14 15 16 17 17 19 19 20 19 20 24 26 28 28 31 32 34 34 37 31 35 28 45 43 40 38 37
17 18 19 19 20 20 21 20 20 20 19 15 15 15 14 12 13 14 12 13 15 15 15 14 13 15 15 17 18 21 25 27 29 33 31 32 34 37 40 32 25 41 30 36 37 34 32
22 23 23 23 22 22 21 20 19 18 17 16 16 14 13 11 9 10 13 11 11 12 14 15 15 16 16 16 17 16 16 19 25 26 27 30 34 38 38 35 31 38 25 24 24 30 27
23 21 19 20 21 21 19 18 17 15 15 14 15 14 14 10 10 11 12 10 11 12 14 15 15 13 11 11 13 17 18 22 15 17 21 22 26 31 34 29 23 33 26 26 23 35 25
26 23 21 18 17 17 17 17 16 15 14 13 11 13 10 10 7 11 9 10 11 9 10 12 13 13 12 16 20 24 28 24 21 19 18 18 16 30 35 34 35 36 33 27 23 19 9
19 18 16 16 16 16 17 16 15 14 14 11 8 8 8 9 8 10 12 11 10 11 12 11 11 13 14 17 20 23 25 19 10 15 19 17 20 22 21 24 24 22 28 30 24 14 15
16 15 14 14 13 14 12 12 12 12 12 12 11 11 10 11 9 8 9 11 14 13 15 19 20 14 13 12 11 8 16 17 18 22 16 10 14 16 15 15 26 25 17 20 25 14 16